• en Belgique
  • Liste des pays
  • À 7 jours
  • Température de l'eau
  • Carte satellitaire
  • Carte météo
  • Widgets météo
  • user-avatar
    Se connecter

    Météo par heure à Brisbane

    Ce jour, 24 Juin, Samedi

    Heure Température Précipitation Vent Pression Humidité
    00:00 +13°C° 0 mm 3 m/s 762 mmHg 79%
    01:00 +13°C° 0 mm 3 m/s 762 mmHg 79%
    02:00 +12°C° 0 mm 3 m/s 761 mmHg 78%
    03:00 +12°C° 0 mm 3 m/s 761 mmHg 76%
    04:00 +12°C° 0 mm 3 m/s 761 mmHg 75%
    05:00 +12°C° 0 mm 3 m/s 761 mmHg 74%
    06:00 +12°C° 0 mm 3 m/s 761 mmHg 73%
    07:00 +12°C° 0 mm 3 m/s 761 mmHg 72%
    08:00 +14°C° 0 mm 3 m/s 761 mmHg 67%
    09:00 +18°C° 0 mm 4 m/s 762 mmHg 61%
    10:00 +20°C° 0 mm 4 m/s 762 mmHg 55%
    11:00 +21°C° 0 mm 4 m/s 761 mmHg 52%
    12:00 +22°C° 0 mm 3 m/s 761 mmHg 48%
    13:00 +25°C° 0 mm 3 m/s 760 mmHg 45%
    14:00 +24°C° 0 mm 3 m/s 760 mmHg 49%
    15:00 +24°C° 0 mm 2 m/s 760 mmHg 54%
    16:00 +23°C° 0 mm 2 m/s 760 mmHg 58%
    17:00 +20°C° 0 mm 2 m/s 760 mmHg 63%
    18:00 +18°C° 0 mm 2 m/s 761 mmHg 68%
    19:00 +15°C° 0 mm 2 m/s 761 mmHg 73%
    20:00 +15°C° 0 mm 2 m/s 761 mmHg 77%
    21:00 +14°C° 0 mm 2 m/s 762 mmHg 80%
    22:00 +13°C° 0 mm 1 m/s 762 mmHg 83%
    23:00 +13°C° 0 mm 1 m/s 762 mmHg 83%

    Demain, 25 Juin, Dimanche

    Heure Température Précipitation Vent Pression Humidité
    00:00 +13°C° 0 mm 1 m/s 762 mmHg 83%
    01:00 +13°C° 0 mm 1 m/s 762 mmHg 83%
    02:00 +13°C° 0 mm 1 m/s 762 mmHg 83%
    03:00 +13°C° 0 mm 2 m/s 762 mmHg 83%
    04:00 +13°C° 0 mm 2 m/s 762 mmHg 83%
    05:00 +12°C° 0 mm 2 m/s 762 mmHg 82%
    06:00 +12°C° 0 mm 2 m/s 763 mmHg 82%
    07:00 +12°C° 0 mm 2 m/s 763 mmHg 82%
    08:00 +15°C° 0 mm 2 m/s 763 mmHg 75%
    09:00 +19°C° 0 mm 1 m/s 763 mmHg 68%
    10:00 +21°C° 0 mm 1 m/s 764 mmHg 60%
    11:00 +22°C° 0 mm 1 m/s 763 mmHg 57%
    12:00 +23°C° 0 mm 1 m/s 763 mmHg 55%
    13:00 +24°C° 0 mm 1 m/s 762 mmHg 52%
    14:00 +24°C° 0 mm 1 m/s 762 mmHg 56%
    15:00 +23°C° 0 mm 1 m/s 762 mmHg 60%
    16:00 +23°C° 0 mm 1 m/s 762 mmHg 63%
    17:00 +20°C° 0 mm 2 m/s 762 mmHg 71%
    18:00 +18°C° 0 mm 2 m/s 763 mmHg 78%
    19:00 +16°C° 0 mm 2 m/s 763 mmHg 85%
    20:00 +15°C° 0 mm 2 m/s 763 mmHg 85%
    21:00 +15°C° 0 mm 2 m/s 764 mmHg 86%
    22:00 +14°C° 0 mm 2 m/s 764 mmHg 86%
    23:00 +14°C° 0 mm 2 m/s 764 mmHg 84%

    Après-demain, 26 Juin, Lundi

    Heure Température Précipitation Vent Pression Humidité
    00:00 +14°C° 0 mm 2 m/s 764 mmHg 82%
    01:00 +14°C° 0 mm 2 m/s 764 mmHg 80%
    02:00 +13°C° 0 mm 2 m/s 764 mmHg 78%
    03:00 +13°C° 0 mm 2 m/s 764 mmHg 76%
    04:00 +13°C° 0 mm 2 m/s 764 mmHg 74%
    05:00 +13°C° 0 mm 2 m/s 764 mmHg 73%
    06:00 +13°C° 0 mm 2 m/s 765 mmHg 72%
    07:00 +13°C° 0 mm 2 m/s 765 mmHg 72%
    08:00 +16°C° 0 mm 2 m/s 765 mmHg 65%
    09:00 +18°C° 0 mm 2 m/s 766 mmHg 58%
    10:00 +22°C° 0 mm 1 m/s 766 mmHg 51%
    11:00 +23°C° 0 mm 1 m/s 765 mmHg 49%
    12:00 +24°C° 0 mm 1 m/s 765 mmHg 47%
    13:00 +24°C° 0 mm 1 m/s 764 mmHg 45%
    14:00 +24°C° 0 mm 2 m/s 764 mmHg 51%
    15:00 +23°C° 0 mm 2 m/s 764 mmHg 57%
    16:00 +21°C° 0 mm 3 m/s 764 mmHg 63%
    17:00 +19°C° 0 mm 3 m/s 765 mmHg 70%
    18:00 +17°C° 0 mm 3 m/s 765 mmHg 77%
    19:00 +14°C° 0 mm 3 m/s 766 mmHg 84%
    20:00 +15°C° 0 mm 2 m/s 766 mmHg 86%
    21:00 +14°C° 0 mm 2 m/s 767 mmHg 87%
    22:00 +14°C° 0 mm 2 m/s 767 mmHg 88%
    23:00 +14°C° 0 mm 2 m/s 767 mmHg 88%

    27 Juin, Mardi

    Heure Température Précipitation Vent Pression Humidité
    00:00 +14°C° 0 mm 2 m/s 767 mmHg 89%
    01:00 +14°C° 0 mm 2 m/s 766 mmHg 89%
    02:00 +13°C° 0 mm 3 m/s 766 mmHg 90%
    03:00 +13°C° 0 mm 3 m/s 767 mmHg 91%
    04:00 +13°C° 0 mm 3 m/s 767 mmHg 92%
    05:00 +13°C° 0 mm 3 m/s 767 mmHg 92%
    06:00 +13°C° 0 mm 3 m/s 767 mmHg 92%
    07:00 +13°C° 0 mm 3 m/s 768 mmHg 93%
    08:00 +16°C° 0 mm 3 m/s 768 mmHg 86%
    09:00 +18°C° 0 mm 3 m/s 768 mmHg 79%
    10:00 +20°C° 0 mm 3 m/s 768 mmHg 72%
    11:00 +21°C° 0,1 mm 3 m/s 768 mmHg 70%
    12:00 +21°C° 0,1 mm 3 m/s 767 mmHg 68%
    13:00 +21°C° 0,1 mm 3 m/s 767 mmHg 66%
    14:00 +21°C° 0 mm 3 m/s 767 mmHg 69%
    15:00 +20°C° 0 mm 3 m/s 766 mmHg 71%
    16:00 +20°C° 0 mm 3 m/s 766 mmHg 74%
    17:00 +19°C° 0 mm 3 m/s 767 mmHg 78%
    18:00 +17°C° 0 mm 3 m/s 767 mmHg 83%
    19:00 +16°C° 0 mm 2 m/s 767 mmHg 88%
    20:00 +16°C° 0 mm 2 m/s 767 mmHg 89%
    21:00 +15°C° 0 mm 2 m/s 768 mmHg 90%
    22:00 +14°C° 0 mm 2 m/s 768 mmHg 91%
    23:00 +15°C° 0 mm 2 m/s 768 mmHg 89%

    28 Juin, Mercredi

    Heure Température Précipitation Vent Pression Humidité
    00:00 +15°C° 0 mm 2 m/s 767 mmHg 88%
    01:00 +15°C° 0 mm 1 m/s 767 mmHg 86%
    02:00 +15°C° 0 mm 1 m/s 767 mmHg 86%
    03:00 +16°C° 0 mm 1 m/s 767 mmHg 86%
    04:00 +16°C° 0 mm 1 m/s 767 mmHg 86%
    05:00 +15°C° 0 mm 2 m/s 767 mmHg 88%
    06:00 +14°C° 0 mm 2 m/s 768 mmHg 89%
    07:00 +14°C° 0 mm 2 m/s 768 mmHg 91%
    08:00 +16°C° 0 mm 2 m/s 768 mmHg 83%
    09:00 +19°C° 0 mm 2 m/s 768 mmHg 74%
    10:00 +21°C° 0 mm 2 m/s 768 mmHg 66%
    11:00 +21°C° 0 mm 2 m/s 768 mmHg 65%
    12:00 +22°C° 0 mm 3 m/s 767 mmHg 64%
    13:00 +22°C° 0 mm 3 m/s 766 mmHg 63%
    14:00 +22°C° 0 mm 3 m/s 766 mmHg 65%
    15:00 +21°C° 0 mm 3 m/s 766 mmHg 67%
    16:00 +21°C° 0 mm 3 m/s 766 mmHg 69%
    17:00 +19°C° 0 mm 3 m/s 767 mmHg 75%
    18:00 +18°C° 0 mm 3 m/s 767 mmHg 80%
    19:00 +16°C° 0 mm 3 m/s 767 mmHg 85%
    20:00 +16°C° 0 mm 3 m/s 767 mmHg 84%
    21:00 +16°C° 0 mm 2 m/s 768 mmHg 83%
    22:00 +16°C° 0 mm 2 m/s 768 mmHg 82%
    23:00 +16°C° 0 mm 2 m/s 767 mmHg 83%

    29 Juin, Jeudi

    Heure Température Précipitation Vent Pression Humidité
    00:00 +16°C° 0 mm 2 m/s 767 mmHg 85%
    01:00 +15°C° 0 mm 2 m/s 767 mmHg 86%
    02:00 +16°C° 0 mm 2 m/s 767 mmHg 85%
    03:00 +16°C° 0 mm 2 m/s 766 mmHg 84%
    04:00 +16°C° 0 mm 2 m/s 766 mmHg 83%
    05:00 +16°C° 0 mm 2 m/s 766 mmHg 84%
    06:00 +16°C° 0 mm 2 m/s 766 mmHg 85%
    07:00 +16°C° 0 mm 2 m/s 767 mmHg 87%
    08:00 +18°C° 0 mm 3 m/s 766 mmHg 81%
    09:00 +20°C° 0 mm 3 m/s 766 mmHg 75%
    10:00 +22°C° 0 mm 4 m/s 766 mmHg 69%
    11:00 +22°C° 0 mm 4 m/s 765 mmHg 68%
    12:00 +23°C° 0 mm 5 m/s 764 mmHg 67%
    13:00 +23°C° 0 mm 5 m/s 764 mmHg 66%
    14:00 +22°C° 0 mm 5 m/s 764 mmHg 68%
    15:00 +22°C° 0 mm 5 m/s 763 mmHg 71%
    16:00 +22°C° 0 mm 5 m/s 763 mmHg 74%
    17:00 +21°C° 0 mm 5 m/s 763 mmHg 79%
    18:00 +20°C° 0 mm 4 m/s 764 mmHg 84%
    19:00 +18°C° 0 mm 4 m/s 764 mmHg 88%
    20:00 +18°C° 0 mm 4 m/s 764 mmHg 89%
    21:00 +18°C° 0 mm 4 m/s 764 mmHg 91%
    22:00 +18°C° 0 mm 4 m/s 764 mmHg 92%
    23:00 +18°C° 0 mm 4 m/s 763 mmHg 92%
    Voir plus